CAPE
820 907 843 957 920 889 910 955 982 955 965 1005 988 955 804 880 586 561 748 565 437 287 446 519 516 208 228 128 52 95 374 563 888 684 1014 1301 1312 1633 1778 1659 1289 1005 596 507 483 546 442 464 389 286 281 406 266 237 214 181 155 121 74 74 64 58 56 9 0 0 0 1 1 0 0 2 1 0 2 2 2 1 0 0 0 0 0 0 1
918 944 874 892 893 682 719 886 899 1070 985 1062 997 863 862 764 752 718 653 545 500 646 671 585 784 224 182 157 57 104 210 322 560 575 856 1190 1286 1521 1739 1606 1512 1219 948 570 482 525 500 453 434 304 352 456 462 376 360 306 230 181 90 19 44 42 61 35 10 2 0 1 2 2 0 0 1 1 1 1 0 0 0 0 0 0 1 2 2
704 956 925 845 824 639 664 986 834 748 748 950 911 829 747 721 762 862 504 514 471 575 884 575 584 262 206 196 118 144 294 318 445 643 745 742 1249 1395 1593 1670 1602 1476 1173 908 671 468 545 523 398 246 400 478 697 621 476 394 354 272 169 120 37 12 11 15 1 5 1 0 0 0 0 0 0 0 0 0 0 0 0 0 0 0 1 2 2
783 743 788 608 686 535 545 795 876 716 631 808 662 612 560 667 896 815 814 864 671 686 843 549 607 266 226 185 190 195 220 214 280 584 631 1115 1071 1237 1283 1351 1629 1562 1402 1069 745 756 581 544 480 363 310 364 796 931 620 517 428 363 242 173 130 29 1 0 4 8 7 2 0 0 1 0 0 0 0 0 0 0 0 0 0 0 0 0 2
750 760 774 632 456 370 411 483 522 787 816 751 828 628 682 915 1019 786 853 960 1054 986 899 639 426 401 302 205 278 338 290 207 299 484 725 793 1126 985 1095 1201 1208 1123 1189 1483 1161 1094 1002 701 505 431 277 423 1084 1019 866 797 643 466 310 246 192 116 12 1 0 7 8 2 1 0 1 1 0 0 0 0 0 0 0 0 0 0 0 0 0
789 717 603 430 532 477 615 546 765 789 936 1001 939 844 752 655 950 931 1415 1164 1102 889 668 540 401 257 296 266 207 316 333 362 457 654 771 768 718 715 1062 1045 811 751 1178 1500 1208 913 570 978 560 482 335 204 319 968 1078 1031 890 680 454 322 258 188 71 32 1 2 7 6 0 0 0 0 0 0 0 0 0 0 0 0 0 0 0 0 0
799 817 597 612 550 641 724 723 807 925 1003 891 908 698 862 906 940 885 847 1094 1215 1028 731 568 430 479 303 255 253 347 376 386 522 669 855 850 583 668 949 978 743 765 902 830 1122 792 467 402 300 529 367 272 151 195 71 1113 951 838 663 449 420 349 163 83 14 0 4 0 0 0 0 0 0 0 0 0 0 0 0 0 0 0 0 0 0
729 915 735 775 800 752 826 882 923 921 834 733 636 614 716 852 805 732 973 1200 1376 1120 873 540 526 502 413 363 318 310 303 432 640 863 1153 891 866 1092 941 952 816 760 1001 680 590 781 874 850 507 561 449 261 127 154 172 21 47 876 818 819 643 499 347 211 118 51 14 0 0 0 0 0 0 0 0 0 0 0 0 0 0 0 0 0 0
839 909 1240 896 869 710 958 815 900 906 743 638 765 740 842 826 798 767 862 963 1006 1128 1006 741 590 557 674 524 425 223 226 515 354 574 938 1072 978 1130 956 931 1250 1770 863 671 572 688 1213 1246 1093 770 718 898 471 209 252 242 133 482 864 891 776 654 517 418 248 216 110 60 3 0 1 0 0 0 0 0 0 0 0 0 0 0 0 0 0
948 1122 1144 952 792 1030 1193 1028 848 965 868 894 912 813 923 880 911 878 851 915 706 765 562 506 689 405 706 839 408 205 146 190 441 772 902 906 1035 1199 1116 1016 871 751 754 812 741 514 956 1293 1300 1138 765 593 668 520 186 238 411 246 289 1012 812 798 633 626 433 341 283 194 100 18 13 2 0 0 0 0 0 0 0 0 0 0 0 0 0
1170 1215 1094 1033 863 916 982 937 804 878 886 945 1008 963 991 981 982 961 813 715 830 707 560 405 349 323 720 809 614 428 425 287 267 332 312 589 1118 1346 1211 1105 936 812 729 927 911 576 804 759 679 661 601 901 1068 1061 655 777 733 517 330 566 985 926 758 763 598 449 460 351 246 82 29 10 1 0 0 0 0 0 1 1 0 0 0 0 0
1230 1250 1025 777 767 760 864 895 858 734 882 799 894 947 948 854 870 929 885 959 800 536 456 283 473 534 948 657 510 573 336 334 398 371 278 660 607 803 970 914 905 916 856 866 1000 812 702 771 801 771 773 1136 952 826 864 1122 1249 1085 1015 883 864 942 902 852 664 620 582 486 492 269 68 18 7 0 0 0 0 0 0 0 0 0 0 0 0
910 885 1163 1390 898 770 659 729 662 637 731 861 867 808 791 948 948 1013 849 785 693 571 382 415 429 704 940 692 683 866 672 378 262 304 376 406 577 825 840 832 745 748 826 776 777 744 774 635 486 511 598 674 572 552 585 652 710 1054 1050 783 745 714 746 630 570 605 572 682 706 476 279 113 44 20 1 0 0 0 0 0 0 1 0 0 0
915 1010 1009 844 942 920 780 760 477 576 853 964 994 881 863 942 1016 876 883 852 666 647 392 542 400 509 802 688 835 384 444 440 488 402 451 346 460 506 492 473 525 733 737 773 808 840 839 586 388 727 516 490 509 556 488 586 528 690 810 822 742 628 618 607 604 731 556 558 741 742 590 332 144 99 58 20 0 0 0 0 0 0 0 0 0
693 711 696 744 836 1033 912 767 562 738 867 929 911 1022 966 1010 991 834 789 626 685 780 604 1041 239 731 678 524 391 362 306 333 280 422 378 307 288 322 405 360 392 564 823 888 777 723 683 564 466 631 448 320 131 106 97 400 392 444 353 351 565 701 753 578 566 691 561 500 703 737 486 452 366 207 180 96 40 5 0 0 0 0 0 0 0
541 611 634 670 667 762 857 978 942 983 974 774 857 862 935 762 841 769 643 366 698 859 1033 1121 861 558 475 467 359 480 267 221 84 115 177 220 319 276 306 401 395 438 595 699 633 514 537 495 453 454 356 319 304 305 312 345 354 343 356 281 236 416 764 800 675 713 650 440 520 505 540 433 484 387 329 241 148 67 7 0 0 0 1 1 0
0 37 245 371 529 629 710 598 738 1001 769 733 849 1030 914 574 732 848 703 670 737 692 743 714 580 620 60 0 4 212 358 280 146 8 274 250 157 162 409 335 158 264 467 416 340 348 25 248 403 453 462 365 271 288 327 241 247 293 203 87 0 66 415 718 676 687 694 627 596 464 514 516 589 573 435 452 388 239 108 28 1 0 0 0 0
14 142 232 178 189 637 642 577 690 802 605 676 737 845 872 772 905 876 690 666 582 729 892 736 654 631 621 658 690 58 494 239 46 18 126 314 317 381 383 331 392 213 360 146 30 9 14 88 284 204 108 196 235 341 311 267 153 363 110 0 0 35 113 351 726 721 776 1000 1010 892 682 634 652 533 498 542 556 382 257 121 36 12 2 0 0
76 46 99 168 211 408 321 394 472 593 679 641 510 614 890 878 847 939 861 601 504 588 645 879 651 620 498 537 567 608 637 383 1 15 50 80 88 66 390 400 441 536 455 256 167 166 289 247 251 191 82 7 2 108 236 0 111 0 0 0 22 15 0 77 283 593 874 820 875 809 602 612 565 511 436 456 484 488 362 333 234 178 64 20 4
24 129 120 151 42 17 193 332 381 368 199 43 167 393 501 556 500 626 771 554 576 525 661 707 574 462 709 722 657 710 604 308 65 0 97 96 13 17 310 445 486 439 417 451 374 289 256 249 176 42 0 0 0 0 0 0 0 0 0 0 0 0 5 123 268 401 581 665 694 632 569 610 507 456 440 411 453 463 421 423 319 234 245 242 52
82 37 27 76 63 27 0 0 12 44 62 43 400 497 670 628 669 688 718 753 511 425 550 615 592 500 541 612 714 644 450 424 256 177 123 76 49 222 276 372 472 533 488 418 353 353 340 220 49 12 0 0 0 0 0 0 0 0 0 0 0 0 31 127 207 296 336 438 547 600 469 472 349 384 334 336 407 388 344 350 414 405 390 326 408
0 0 10 32 5 0 0 0 0 10 26 245 328 374 612 729 764 798 861 892 640 516 732 637 514 481 484 326 421 397 282 412 413 212 48 0 159 230 225 328 328 404 438 404 351 279 57 0 0 0 0 0 0 0 0 0 0 0 0 0 0 8 1 0 0 0 0 0 83 126 178 303 298 227 165 238 279 245 223 274 247 257 154 216 18
0 0 0 0 0 0 0 0 0 36 7 9 33 142 182 351 374 432 523 571 500 536 632 587 459 472 482 452 388 265 59 379 486 246 28 0 1 200 203 244 288 422 508 419 262 147 6 0 0 0 0 0 0 0 0 0 0 0 0 0 0 26 0 0 0 0 0 0 0 3 1 2 3 3 2 2 2 3 8 19 17 34 12 16 1
0 0 0 0 0 0 0 0 0 0 0 0 0 0 0 0 0 125 288 260 486 495 405 372 398 484 556 474 201 322 409 409 424 448 33 4 120 164 125 169 300 340 375 360 296 157 0 0 0 0 0 0 0 0 0 0 0 0 0 0 0 13 19 7 0 0 0 0 0 0 0 0 0 0 0 0 0 0 0 0 0 0 0 0 0
0 0 0 0 0 0 0 0 0 0 0 0 0 0 0 0 0 0 0 0 0 0 0 0 29 370 432 461 428 527 631 489 434 363 197 135 96 9 15 190 153 38 353 314 209 0 0 0 0 0 0 0 0 0 0 0 0 0 0 0 0 8 14 11 0 0 0 0 0 0 0 0 0 0 0 0 0 0 0 0 0 0 0 0 0
0 0 0 0 0 0 0 0 0 0 0 0 0 0 0 0 0 0 0 0 0 0 0 0 0 0 0 0 0 31 541 341 124 266 244 202 131 1 0 0 0 0 120 0 0 0 0 0 0 0 0 0 0 0 0 0 0 0 2 3 1 0 0 0 0 0 0 0 0 0 0 0 0 0 0 0 0 0 0 0 0 0 0 0 0
0 0 0 0 0 0 0 0 0 0 0 0 0 0 0 0 0 0 0 0 0 0 0 0 0 0 0 0 0 0 0 0 0 166 249 188 1 0 0 0 0 0 0 0 0 0 0 0 0 0 0 0 0 0 0 0 0 0 0 0 0 0 0 0 0 0 0 0 0 0 0 0 0 0 0 0 0 0 0 0 0 0 0 0 0
0 0 0 0 0 0 0 0 0 0 0 0 0 0 0 0 0 0 0 0 0 0 0 0 0 0 0 0 0 0 0 0 0 0 0 73 5 0 0 0 0 0 0 0 0 0 0 0 0 0 0 0 0 0 0 0 0 0 0 0 0 0 0 0 0 0 0 0 0 0 0 0 0 0 0 0 0 0 0 0 0 0 0 0 0
0 0 0 0 0 0 0 0 0 0 0 0 0 0 0 0 0 0 0 0 0 0 0 0 0 0 0 0 0 0 0 0 0 0 0 0 0 0 0 0 0 0 0 0 0 0 0 0 0 0 0 0 0 0 0 0 0 0 0 0 0 0 0 0 0 0 0 0 0 0 0 0 0 0 0 0 0 0 0 0 0 0 0 0 0
0 0 0 0 0 0 0 0 0 0 0 0 0 0 0 0 0 0 0 0 0 0 0 0 0 0 0 0 0 0 0 0 0 0 0 0 0 0 0 0 0 0 0 0 0 0 0 0 0 0 0 0 0 0 0 0 0 0 0 0 0 0 0 0 0 0 0 0 0 0 0 0 0 0 0 0 0 0 0 0 0 0 0 0 0
0 0 0 0 0 0 0 0 0 0 0 0 0 0 0 0 0 0 0 0 0 0 0 0 0 0 0 0 0 0 0 0 0 0 0 0 0 0 0 0 0 0 0 0 0 0 0 0 0 0 0 0 0 0 0 0 0 0 0 0 0 0 0 0 0 0 0 0 0 0 0 0 0 0 0 0 0 0 0 0 0 0 0 0 0
0 0 0 0 0 0 0 0 0 0 0 0 0 0 0 0 0 0 0 0 0 0 0 0 0 0 0 0 0 0 0 0 0 0 0 0 0 0 0 0 0 0 0 0 0 0 0 0 0 0 0 0 0 0 0 0 0 0 0 0 0 0 0 0 0 0 0 0 0 0 0 0 0 0 0 0 0 0 0 0 0 0 0 0 0
0 0 0 0 0 0 0 0 0 0 0 0 0 0 0 0 0 0 0 0 0 0 0 0 0 0 0 0 0 0 0 0 0 0 0 0 0 0 0 0 0 0 0 0 0 0 0 0 0 0 0 0 0 0 0 0 0 0 0 0 0 0 0 0 0 0 0 0 0 0 0 0 0 0 0 0 0 0 0 0 0 0 0 0 0
0 0 0 0 0 0 0 0 0 0 0 0 0 0 0 0 0 0 0 0 0 0 0 0 0 0 0 0 0 0 0 0 0 0 0 0 0 0 0 0 0 0 0 0 0 0 0 0 0 0 0 0 0 0 0 0 0 0 0 0 0 0 0 0 0 0 0 0 0 0 0 0 0 0 0 0 0 0 0 0 0 0 0 0 0
0 0 0 0 0 0 0 0 0 0 0 0 0 0 0 0 0 0 0 0 0 0 0 0 0 0 0 0 0 0 0 0 0 0 0 0 0 0 0 0 0 0 0 0 0 0 0 0 0 0 0 0 0 0 0 0 0 0 0 0 0 0 0 0 0 0 0 0 0 0 0 0 0 0 0 0 0 0 0 0 0 0 0 0 0
0 0 0 0 0 0 0 0 0 0 0 0 0 0 0 0 0 0 0 0 0 0 0 0 0 0 0 0 0 0 0 0 0 0 0 0 0 0 0 0 0 0 0 0 0 0 0 0 0 0 0 0 0 0 0 0 0 0 0 0 0 0 0 0 0 0 0 0 0 0 0 0 0 0 0 0 0 0 0 0 0 0 0 0 0
0 0 0 0 0 0 0 0 0 0 0 0 0 0 0 0 0 0 0 0 0 0 0 0 0 0 0 0 0 0 0 0 0 0 0 0 0 0 0 0 0 0 0 0 0 0 0 0 0 0 0 0 0 0 0 0 0 0 0 0 0 0 0 0 0 0 0 0 0 0 0 0 0 0 0 0 0 0 0 0 0 0 0 0 0
0 0 0 0 0 0 0 0 0 0 0 0 0 0 0 0 0 0 0 0 0 2 0 0 0 0 0 0 0 0 0 0 0 0 0 0 0 0 0 0 0 0 0 0 0 0 0 0 0 0 0 0 0 0 0 0 0 0 0 0 0 0 0 0 0 0 0 0 0 0 0 0 0 0 0 0 0 0 0 0 0 0 0 0 0
0 0 0 0 0 0 0 0 0 0 0 0 0 0 0 13 34 0 48 0 37 85 3 0 0 0 0 0 0 0 0 0 0 0 0 0 0 0 0 0 0 0 0 0 0 0 0 0 0 0 0 0 0 0 0 0 0 0 0 0 0 0 0 0 0 0 0 0 0 0 0 0 0 0 0 0 0 0 0 0 0 0 0 0 0
16 8 0 0 0 0 0 0 0 0 0 0 14 44 59 49 175 145 337 292 76 46 13 0 33 44 2 2 0 0 0 0 0 0 0 0 0 0 0 0 0 0 0 0 0 0 0 0 0 0 0 0 0 0 0 0 0 0 0 0 0 0 0 0 0 0 0 0 0 0 0 0 0 0 0 0 0 0 0 0 0 0 0 0 0
339 104 62 69 14 0 0 0 2 0 0 0 0 0 10 282 318 356 312 334 368 348 324 176 68 193 0 0 0 0 3 2 0 0 0 0 0 0 0 0 0 0 0 0 0 0 0 0 0 0 0 0 0 0 0 0 0 0 0 0 0 0 0 0 0 0 0 0 0 0 0 0 0 0 0 0 0 0 0 0 0 0 0 0 0
486 370 155 105 60 87 8 0 1 4 6 24 0 0 0 189 426 330 308 320 353 331 193 2 0 25 297 158 29 127 0 0 0 0 0 0 0 0 0 0 0 0 0 0 0 0 0 0 0 0 0 0 0 0 0 0 0 0 0 0 0 0 0 0 0 0 0 0 0 0 0 0 0 0 0 0 0 0 0 0 0 0 0 0 0
505 434 42 128 271 99 32 20 31 44 26 80 0 0 0 0 347 517 375 311 289 326 242 0 0 0 0 15 113 1 0 0 0 0 0 0 0 0 0 0 0 0 0 0 0 0 0 0 0 0 0 0 0 0 0 0 0 0 0 0 0 0 0 0 0 0 0 0 0 0 0 0 0 0 0 0 0 0 0 0 0 0 0 0 0
537 473 296 211 187 257 147 82 41 18 12 14 0 0 0 0 193 416 498 498 456 452 420 178 0 0 0 0 0 0 0 0 0 0 0 0 0 0 0 0 0 0 0 0 0 0 0 0 0 0 0 0 0 0 0 0 0 0 0 0 0 0 0 0 0 0 0 0 0 0 0 0 0 0 0 0 0 0 0 0 0 0 0 0 0
711 610 486 296 256 445 474 305 130 86 54 0 0 0 0 0 144 335 424 482 463 435 413 366 113 0 0 0 0 0 35 17 0 0 279 170 0 0 0 0 0 0 0 0 0 0 0 0 0 0 0 0 0 0 0 0 0 0 0 0 0 0 0 0 0 0 0 0 0 0 0 0 0 0 0 0 0 0 0 0 0 0 0 0 0
810 702 576 527 433 253 517 613 560 513 486 302 259 241 222 338 312 151 4 0 0 338 370 338 141 0 0 0 0 0 0 11 0 239 318 257 95 0 0 0 2 70 0 0 0 0 0 0 0 0 0 0 0 0 0 0 0 0 0 0 0 0 0 0 0 0 0 0 0 0 0 0 0 0 0 0 0 0 0 0 0 0 0 0 0
762 636 556 534 522 456 453 645 762 785 721 677 616 549 450 360 0 0 0 0 0 0 0 0 0 0 0 0 0 0 0 0 0 255 327 32 0 0 154 163 140 125 90 13 0 0 0 0 0 0 0 0 0 0 0 0 0 0 0 0 0 0 0 0 0 0 0 0 0 0 0 0 0 0 0 0 0 0 0 0 0 0 0 0 0
642 659 658 631 606 555 532 538 680 820 927 888 802 672 535 360 0 0 0 145 0 0 0 0 0 0 0 0 0 0 0 0 56 349 318 0 0 0 0 185 173 115 75 3 0 0 0 0 0 0 0 0 0 0 0 0 0 0 0 0 0 0 0 0 0 0 0 0 0 0 0 0 0 0 0 0 0 0 0 0 0 0 0 0 0
728 704 659 592 553 578 577 524 502 657 822 905 891 827 716 574 532 491 457 426 464 342 6 0 0 0 0 0 1 0 2 12 296 380 356 75 0 0 0 0 0 91 0 0 0 0 0 0 0 0 0 0 0 0 0 0 0 0 0 0 0 0 0 0 0 0 0 0 0 0 0 0 0 0 0 0 0 0 0 0 0 0 0 0 0
667 630 575 456 435 444 458 431 345 400 650 825 872 848 774 676 587 522 461 381 282 439 298 0 0 0 0 3 0 5 2 219 419 442 322 100 0 0 0 0 0 0 0 0 0 0 0 0 0 0 0 0 0 0 0 0 0 0 0 0 0 0 0 0 0 0 0 0 0 0 0 0 0 0 0 0 0 0 0 0 0 0 0 0 0
0 358 405 430 423 370 363 370 363 424 580 752 800 758 698 689 665 622 493 405 295 437 347 0 0 0 0 0 0 1 3 252 492 341 0 0 0 0 0 0 0 0 0 0 0 0 0 0 0 0 0 0 0 0 0 0 0 0 0 0 0 0 0 0 0 0 0 0 0 0 0 0 0 0 0 0 0 0 0 0 0 0 0 0 0
Wind_Speed
8 9 10 10 8 6 5 7 9 8 10 10 12 14 14 14 15 16 15 16 17 17 18 20 21 21 21 18 nan nan 22 20 14 13 15 16 16 18 21 21 22 23 23 21 23 23 23 22 19 19 21 22 21 21 21 22 22 23 nan nan nan nan nan nan nan nan nan nan nan nan nan nan nan nan nan nan nan nan nan nan nan nan nan nan nan
5 8 11 9 7 5 4 5 9 8 9 9 11 13 13 13 13 13 13 13 15 16 17 18 20 21 20 14 nan 20 23 23 20 14 13 15 15 16 19 19 18 21 22 21 21 23 24 24 22 20 20 21 22 22 22 22 22 23 nan nan nan nan nan nan nan nan nan nan nan nan nan nan nan nan nan nan nan nan nan nan nan nan nan nan nan
5 8 8 7 5 4 5 6 8 8 7 7 9 11 10 10 11 11 10 11 13 13 15 15 15 18 19 16 15 22 20 18 20 19 17 13 14 15 15 16 17 19 20 21 18 21 23 24 22 21 20 20 21 23 23 23 22 23 23 23 nan nan nan nan nan nan nan nan nan nan nan nan nan nan nan nan nan nan nan nan nan nan nan nan nan
3 5 7 6 4 5 5 5 5 5 7 7 9 8 8 6 8 9 9 11 11 10 11 13 14 14 15 15 14 19 18 15 18 23 21 17 14 12 12 12 15 18 20 20 19 19 22 23 22 22 19 19 21 23 23 23 23 22 23 24 24 nan nan nan nan nan nan nan nan nan nan nan nan nan nan nan nan nan nan nan nan nan nan nan nan
2 3 6 6 4 4 4 5 6 6 8 8 9 8 6 4 6 7 9 11 11 9 10 11 12 13 14 13 13 17 17 17 17 20 23 20 16 9 9 10 13 17 20 21 22 22 19 25 23 23 21 22 22 21 21 22 22 23 23 23 24 25 nan nan nan nan nan nan nan nan nan nan nan nan nan nan nan nan nan nan nan nan nan nan nan
2 3 6 7 7 5 4 5 8 9 9 8 9 7 6 4 5 6 8 10 11 9 10 11 11 13 14 11 12 14 17 17 13 15 17 18 14 5 6 9 11 13 15 18 20 19 21 25 25 25 24 25 23 22 21 21 21 23 23 23 24 24 nan nan nan nan nan nan nan nan nan nan nan nan nan nan nan nan nan nan nan nan nan nan nan
3 4 7 8 9 10 7 9 8 9 10 9 10 7 6 6 7 7 6 8 8 7 8 10 11 16 15 12 13 12 14 15 13 15 13 11 11 7 8 9 10 11 13 15 17 19 19 21 23 26 24 26 24 24 nan 22 22 23 23 23 23 24 25 nan nan nan nan nan nan nan nan nan nan nan nan nan nan nan nan nan nan nan nan nan nan
6 6 7 9 9 10 9 11 11 10 10 9 8 9 7 8 7 8 6 5 7 6 7 9 12 14 14 15 14 13 14 14 14 13 10 11 8 7 9 10 10 10 12 14 15 16 19 22 24 26 25 25 24 24 23 nan nan 22 21 22 23 24 25 25 23 nan nan nan nan nan nan nan nan nan nan nan nan nan nan nan nan nan nan nan nan
4 6 8 8 8 9 8 12 11 10 9 7 6 8 8 8 6 7 6 5 6 6 7 8 9 11 11 13 13 12 14 13 14 12 12 12 9 6 9 9 9 12 13 14 15 16 18 21 21 21 20 21 21 23 23 24 22 21 20 23 24 25 25 24 22 22 23 nan nan nan nan nan nan nan nan nan nan nan nan nan nan nan nan nan nan
7 8 8 9 9 9 9 10 10 10 8 6 5 6 7 9 6 5 6 5 4 4 5 6 7 8 9 10 10 9 12 14 14 13 13 12 10 8 9 8 9 11 13 14 15 17 17 18 18 17 16 16 17 16 18 19 21 20 21 23 23 23 23 23 23 23 23 23 25 nan nan nan nan nan nan nan nan nan nan nan nan nan nan nan nan
10 10 10 10 10 9 9 9 10 9 7 4 5 6 6 7 9 7 6 7 5 4 4 6 7 8 10 10 9 8 11 14 14 12 13 14 12 12 11 11 11 11 13 14 16 16 17 15 11 10 12 14 12 13 15 19 21 20 19 20 21 21 21 22 23 24 23 23 23 nan nan nan nan nan nan nan nan nan nan nan nan nan nan nan nan
10 10 10 11 10 9 9 8 8 8 7 5 4 6 6 7 9 9 8 7 7 4 3 6 7 9 9 11 10 10 12 13 10 10 12 12 12 10 12 11 11 10 11 13 15 15 16 13 10 9 10 12 15 16 16 17 18 17 19 19 19 20 19 21 23 24 22 21 21 22 nan nan nan nan nan nan nan nan nan nan nan nan nan nan nan
10 10 11 12 11 10 9 8 6 6 6 5 5 5 5 6 8 9 8 7 5 4 2 4 8 8 10 11 10 11 12 10 7 8 9 11 10 10 10 11 9 10 10 12 13 13 12 11 11 12 11 10 12 12 12 13 14 16 16 16 15 17 18 23 24 23 20 19 19 20 23 24 nan nan nan nan nan nan nan nan nan nan nan nan nan
11 11 12 12 11 11 9 7 6 5 4 4 5 8 5 6 8 8 6 8 6 5 2 4 6 8 9 9 11 10 12 10 8 8 10 10 9 9 11 10 9 8 8 10 11 11 10 10 11 10 8 7 8 8 9 10 10 15 17 16 15 15 19 22 18 15 18 18 16 18 23 24 24 nan nan nan nan nan nan nan nan nan nan nan nan
12 13 12 11 11 10 9 8 6 5 5 4 4 6 7 8 7 9 8 8 7 5 4 4 6 8 9 13 10 12 12 11 9 8 8 10 7 8 10 10 8 8 8 9 10 10 10 10 10 10 8 6 6 7 nan 9 13 17 16 17 18 19 21 17 14 13 15 14 15 19 25 23 23 23 24 nan nan nan nan nan nan nan nan nan nan
12 12 12 11 11 9 7 8 6 6 6 5 7 7 7 7 7 8 9 8 8 6 6 6 8 11 10 10 9 13 16 13 nan 7 9 10 9 10 9 8 8 8 9 10 9 9 10 11 11 11 9 8 7 7 8 11 13 12 11 12 14 17 16 16 12 13 13 12 13 16 23 24 22 22 22 22 23 nan nan nan nan nan nan nan nan
nan nan 12 13 11 9 8 8 7 7 7 6 4 7 8 8 7 7 8 9 8 8 7 9 11 9 nan nan nan 11 12 17 19 nan 8 9 10 10 10 9 10 10 10 10 10 10 nan 12 12 11 11 11 11 12 12 12 11 11 11 nan nan nan 11 10 11 12 12 12 11 13 16 19 21 22 19 20 21 22 23 nan nan nan nan nan nan
nan 12 11 9 10 11 8 8 8 8 8 8 8 10 9 10 9 8 7 7 10 10 10 10 11 10 11 11 10 nan 16 16 nan nan 9 10 11 11 12 10 10 12 12 12 nan nan nan nan 11 12 13 13 12 13 13 12 11 14 14 nan nan nan 13 11 12 13 11 9 11 13 13 12 18 23 23 19 19 21 22 23 nan nan nan nan nan
nan nan nan 10 9 9 8 7 7 7 7 10 9 10 11 11 11 10 9 9 9 10 11 12 14 12 11 12 13 13 15 17 nan nan nan nan nan nan 12 11 12 13 14 12 12 13 11 11 13 14 nan nan nan 13 13 nan 14 nan nan nan nan nan nan nan 16 17 16 14 15 16 17 16 16 18 20 20 18 17 18 18 19 20 nan nan nan
nan 12 11 11 nan nan 10 8 7 6 8 nan 12 13 13 13 12 11 11 10 9 12 11 13 14 11 11 13 12 15 18 21 nan nan nan nan nan nan 12 12 14 15 14 15 15 15 14 13 15 nan nan nan nan nan nan nan nan nan nan nan nan nan nan 19 20 20 21 21 20 19 17 16 15 14 15 15 15 15 14 11 13 14 14 16 nan
nan nan nan nan nan nan nan nan nan nan nan nan 10 11 12 14 14 14 12 11 10 10 13 12 14 13 13 13 14 16 19 17 16 17 15 nan nan 13 14 12 13 14 14 14 14 13 14 16 nan nan nan nan nan nan nan nan nan nan nan nan nan nan nan 22 22 22 23 23 25 25 23 24 24 24 22 19 19 17 13 13 15 13 12 13 10
nan nan nan nan nan nan nan nan nan nan nan 8 9 10 11 12 12 12 12 12 11 13 14 15 15 13 13 13 15 17 18 17 14 17 nan nan 16 13 13 15 15 11 10 12 13 13 nan nan nan nan nan nan nan nan nan nan nan nan nan nan nan nan nan nan nan nan nan nan nan 29 28 28 28 27 27 28 28 28 26 22 23 22 20 16 nan
nan nan nan nan nan nan nan nan nan nan nan nan nan 8 8 9 10 11 11 11 11 12 14 15 15 16 15 15 15 15 nan 13 13 14 nan nan nan 14 12 10 13 14 9 11 14 15 nan nan nan nan nan nan nan nan nan nan nan nan nan nan nan nan nan nan nan nan nan nan nan nan nan nan nan nan nan nan nan nan nan nan nan nan nan nan nan
nan nan nan nan nan nan nan nan nan nan nan nan nan nan nan nan nan 10 10 10 11 12 12 14 14 15 14 15 15 15 16 15 12 15 nan nan 16 15 12 11 11 9 12 12 13 16 nan nan nan nan nan nan nan nan nan nan nan nan nan nan nan nan nan nan nan nan nan nan nan nan nan nan nan nan nan nan nan nan nan nan nan nan nan nan nan
nan nan nan nan nan nan nan nan nan nan nan nan nan nan nan nan nan nan nan nan nan nan nan nan nan 11 12 13 14 13 13 12 14 15 15 14 nan nan nan 11 11 nan 12 14 14 nan nan nan nan nan nan nan nan nan nan nan nan nan nan nan nan nan nan nan nan nan nan nan nan nan nan nan nan nan nan nan nan nan nan nan nan nan nan nan nan
nan nan nan nan nan nan nan nan nan nan nan nan nan nan nan nan nan nan nan nan nan nan nan nan nan nan nan nan nan nan 11 12 13 15 14 15 13 nan nan nan nan nan 13 nan nan nan nan nan nan nan nan nan nan nan nan nan nan nan nan nan nan nan nan nan nan nan nan nan nan nan nan nan nan nan nan nan nan nan nan nan nan nan nan nan nan
nan nan nan nan nan nan nan nan nan nan nan nan nan nan nan nan nan nan nan nan nan nan nan nan nan nan nan nan nan nan nan nan nan 14 13 13 nan nan nan nan nan nan nan nan nan nan nan nan nan nan nan nan nan nan nan nan nan nan nan nan nan nan nan nan nan nan nan nan nan nan nan nan nan nan nan nan nan nan nan nan nan nan nan nan nan
nan nan nan nan nan nan nan nan nan nan nan nan nan nan nan nan nan nan nan nan nan nan nan nan nan nan nan nan nan nan nan nan nan nan nan nan nan nan nan nan nan nan nan nan nan nan nan nan nan nan nan nan nan nan nan nan nan nan nan nan nan nan nan nan nan nan nan nan nan nan nan nan nan nan nan nan nan nan nan nan nan nan nan nan nan
nan nan nan nan nan nan nan nan nan nan nan nan nan nan nan nan nan nan nan nan nan nan nan nan nan nan nan nan nan nan nan nan nan nan nan nan nan nan nan nan nan nan nan nan nan nan nan nan nan nan nan nan nan nan nan nan nan nan nan nan nan nan nan nan nan nan nan nan nan nan nan nan nan nan nan nan nan nan nan nan nan nan nan nan nan
nan nan nan nan nan nan nan nan nan nan nan nan nan nan nan nan nan nan nan nan nan nan nan nan nan nan nan nan nan nan nan nan nan nan nan nan nan nan nan nan nan nan nan nan nan nan nan nan nan nan nan nan nan nan nan nan nan nan nan nan nan nan nan nan nan nan nan nan nan nan nan nan nan nan nan nan nan nan nan nan nan nan nan nan nan
nan nan nan nan nan nan nan nan nan nan nan nan nan nan nan nan nan nan nan nan nan nan nan nan nan nan nan nan nan nan nan nan nan nan nan nan nan nan nan nan nan nan nan nan nan nan nan nan nan nan nan nan nan nan nan nan nan nan nan nan nan nan nan nan nan nan nan nan nan nan nan nan nan nan nan nan nan nan nan nan nan nan nan nan nan
nan nan nan nan nan nan nan nan nan nan nan nan nan nan nan nan nan nan nan nan nan nan nan nan nan nan nan nan nan nan nan nan nan nan nan nan nan nan nan nan nan nan nan nan nan nan nan nan nan nan nan nan nan nan nan nan nan nan nan nan nan nan nan nan nan nan nan nan nan nan nan nan nan nan nan nan nan nan nan nan nan nan nan nan nan
nan nan nan nan nan nan nan nan nan nan nan nan nan nan nan nan nan nan nan nan nan nan nan nan nan nan nan nan nan nan nan nan nan nan nan nan nan nan nan nan nan nan nan nan nan nan nan nan nan nan nan nan nan nan nan nan nan nan nan nan nan nan nan nan nan nan nan nan nan nan nan nan nan nan nan nan nan nan nan nan nan nan nan nan nan
nan nan nan nan nan nan nan nan nan nan nan nan nan nan nan nan nan nan nan nan nan nan nan nan nan nan nan nan nan nan nan nan nan nan nan nan nan nan nan nan nan nan nan nan nan nan nan nan nan nan nan nan nan nan nan nan nan nan nan nan nan nan nan nan nan nan nan nan nan nan nan nan nan nan nan nan nan nan nan nan nan nan nan nan nan
nan nan nan nan nan nan nan nan nan nan nan nan nan nan nan nan nan nan nan nan nan nan nan nan nan nan nan nan nan nan nan nan nan nan nan nan nan nan nan nan nan nan nan nan nan nan nan nan nan nan nan nan nan nan nan nan nan nan nan nan nan nan nan nan nan nan nan nan nan nan nan nan nan nan nan nan nan nan nan nan nan nan nan nan nan
nan nan nan nan nan nan nan nan nan nan nan nan nan nan nan nan nan nan nan nan nan nan nan nan nan nan nan nan nan nan nan nan nan nan nan nan nan nan nan nan nan nan nan nan nan nan nan nan nan nan nan nan nan nan nan nan nan nan nan nan nan nan nan nan nan nan nan nan nan nan nan nan nan nan nan nan nan nan nan nan nan nan nan nan nan
nan nan nan nan nan nan nan nan nan nan nan nan nan nan nan nan nan nan nan nan nan nan nan nan nan nan nan nan nan nan nan nan nan nan nan nan nan nan nan nan nan nan nan nan nan nan nan nan nan nan nan nan nan nan nan nan nan nan nan nan nan nan nan nan nan nan nan nan nan nan nan nan nan nan nan nan nan nan nan nan nan nan nan nan nan
nan nan nan nan nan nan nan nan nan nan nan nan nan nan nan nan nan nan nan nan nan nan nan nan nan nan nan nan nan nan nan nan nan nan nan nan nan nan nan nan nan nan nan nan nan nan nan nan nan nan nan nan nan nan nan nan nan nan nan nan nan nan nan nan nan nan nan nan nan nan nan nan nan nan nan nan nan nan nan nan nan nan nan nan nan
nan nan nan nan nan nan nan nan nan nan nan nan nan nan nan nan nan nan nan nan nan nan nan nan nan nan nan nan nan nan nan nan nan nan nan nan nan nan nan nan nan nan nan nan nan nan nan nan nan nan nan nan nan nan nan nan nan nan nan nan nan nan nan nan nan nan nan nan nan nan nan nan nan nan nan nan nan nan nan nan nan nan nan nan nan
nan nan nan nan nan nan nan nan nan nan nan nan nan nan nan nan 26 25 27 26 nan nan nan nan nan nan nan nan nan nan nan nan nan nan nan nan nan nan nan nan nan nan nan nan nan nan nan nan nan nan nan nan nan nan nan nan nan nan nan nan nan nan nan nan nan nan nan nan nan nan nan nan nan nan nan nan nan nan nan nan nan nan nan nan nan
21 24 nan nan nan nan nan nan nan nan nan nan nan nan nan 27 28 32 29 25 27 27 26 27 nan 28 nan nan nan nan nan nan nan nan nan nan nan nan nan nan nan nan nan nan nan nan nan nan nan nan nan nan nan nan nan nan nan nan nan nan nan nan nan nan nan nan nan nan nan nan nan nan nan nan nan nan nan nan nan nan nan nan nan nan nan
19 20 23 24 nan nan nan nan nan nan nan nan nan nan nan 31 30 31 28 26 27 28 28 nan nan nan 31 32 nan 39 nan nan nan nan nan nan nan nan nan nan nan nan nan nan nan nan nan nan nan nan nan nan nan nan nan nan nan nan nan nan nan nan nan nan nan nan nan nan nan nan nan nan nan nan nan nan nan nan nan nan nan nan nan nan nan
18 19 nan 23 23 nan nan nan nan nan nan nan nan nan nan nan 34 32 31 30 31 32 31 nan nan nan nan nan 36 nan nan nan nan nan nan nan nan nan nan nan nan nan nan nan nan nan nan nan nan nan nan nan nan nan nan nan nan nan nan nan nan nan nan nan nan nan nan nan nan nan nan nan nan nan nan nan nan nan nan nan nan nan nan nan nan
20 22 23 24 25 26 26 nan nan nan nan nan nan nan nan nan 37 35 34 35 35 34 33 34 nan nan nan nan nan nan nan nan nan nan nan nan nan nan nan nan nan nan nan nan nan nan nan nan nan nan nan nan nan nan nan nan nan nan nan nan nan nan nan nan nan nan nan nan nan nan nan nan nan nan nan nan nan nan nan nan nan nan nan nan nan
24 25 26 27 28 27 28 28 26 nan nan nan nan nan nan nan 38 38 37 38 37 35 35 35 36 nan nan nan nan nan nan nan nan nan 44 43 nan nan nan nan nan nan nan nan nan nan nan nan nan nan nan nan nan nan nan nan nan nan nan nan nan nan nan nan nan nan nan nan nan nan nan nan nan nan nan nan nan nan nan nan nan nan nan nan nan
27 28 29 29 29 29 29 29 29 30 31 29 34 42 44 43 40 38 nan nan nan 39 38 38 37 nan nan nan nan nan nan nan nan 44 45 45 nan nan nan nan nan nan nan nan nan nan nan nan nan nan nan nan nan nan nan nan nan nan nan nan nan nan nan nan nan nan nan nan nan nan nan nan nan nan nan nan nan nan nan nan nan nan nan nan nan
29 29 30 31 32 32 31 31 32 31 32 33 39 44 45 44 nan nan nan nan nan nan nan nan nan nan nan nan nan nan nan nan nan 45 46 nan nan nan 39 39 42 43 nan nan nan nan nan nan nan nan nan nan nan nan nan nan nan nan nan nan nan nan nan nan nan nan nan nan nan nan nan nan nan nan nan nan nan nan nan nan nan nan nan nan nan
33 34 33 35 34 35 36 36 35 34 34 39 41 43 45 46 nan nan nan 43 nan nan nan nan nan nan nan nan nan nan nan nan nan 48 50 nan nan nan nan 40 44 47 nan nan nan nan nan nan nan nan nan nan nan nan nan nan nan nan nan nan nan nan nan nan nan nan nan nan nan nan nan nan nan nan nan nan nan nan nan nan nan nan nan nan nan
36 36 35 35 37 37 37 38 37 36 35 36 40 44 46 47 46 43 43 43 44 44 nan nan nan nan nan nan nan nan nan nan 47 53 55 nan nan nan nan nan nan nan nan nan nan nan nan nan nan nan nan nan nan nan nan nan nan nan nan nan nan nan nan nan nan nan nan nan nan nan nan nan nan nan nan nan nan nan nan nan nan nan nan nan nan
39 39 38 37 38 40 40 38 38 38 37 38 43 46 48 48 47 46 45 45 44 45 47 nan nan nan nan nan nan nan nan 47 52 57 57 56 nan nan nan nan nan nan nan nan nan nan nan nan nan nan nan nan nan nan nan nan nan nan nan nan nan nan nan nan nan nan nan nan nan nan nan nan nan nan nan nan nan nan nan nan nan nan nan nan nan
nan 41 42 40 37 38 39 39 38 38 40 42 46 47 49 49 47 46 47 48 47 49 51 nan nan nan nan nan nan nan nan 53 55 58 nan nan nan nan nan nan nan nan nan nan nan nan nan nan nan nan nan nan nan nan nan nan nan nan nan nan nan nan nan nan nan nan nan nan nan nan nan nan nan nan nan nan nan nan nan nan nan nan nan nan nan
Wind_Direction
282 290 289 286 278 267 266 279 282 282 286 280 276 272 268 271 267 262 260 255 249 241 238 235 231 226 231 234 nan nan 228 222 214 245 257 257 262 270 275 275 280 283 285 287 287 286 283 280 276 272 267 265 265 263 263 263 264 263 nan nan nan nan nan nan nan nan nan nan nan nan nan nan nan nan nan nan nan nan nan nan nan nan nan nan nan
282 282 294 293 298 298 284 281 290 278 276 283 281 278 277 275 273 268 263 256 252 241 242 236 226 217 221 231 nan 234 231 226 213 199 242 255 256 263 275 271 272 286 289 289 290 288 285 281 278 274 268 265 266 264 262 260 260 260 nan nan nan nan nan nan nan nan nan nan nan nan nan nan nan nan nan nan nan nan nan nan nan nan nan nan nan
297 296 299 303 301 284 269 264 273 286 297 291 275 279 280 282 280 276 266 262 259 254 245 236 226 216 221 229 236 248 244 241 242 220 209 230 249 256 262 270 271 283 288 287 286 283 284 282 281 275 275 269 269 268 266 263 261 259 259 259 nan nan nan nan nan nan nan nan nan nan nan nan nan nan nan nan nan nan nan nan nan nan nan nan nan
262 291 305 301 303 288 280 284 290 300 316 301 293 296 310 306 291 277 276 272 268 260 252 241 228 217 228 242 252 256 254 245 242 240 232 220 228 248 255 257 267 268 267 276 280 276 284 281 281 278 273 274 272 273 270 267 264 261 259 258 258 nan nan nan nan nan nan nan nan nan nan nan nan nan nan nan nan nan nan nan nan nan nan nan nan
250 289 306 304 297 270 287 309 323 326 325 323 316 317 314 308 299 292 284 275 269 259 248 243 237 230 241 242 244 256 254 243 240 244 250 247 228 224 250 255 254 262 264 263 264 255 267 288 282 278 271 269 270 269 269 269 267 264 259 258 257 257 nan nan nan nan nan nan nan nan nan nan nan nan nan nan nan nan nan nan nan nan nan nan nan
320 301 302 302 300 301 313 331 326 327 318 315 312 314 315 314 310 287 279 275 271 261 247 240 237 240 243 241 231 240 250 251 253 257 251 253 267 266 249 256 258 259 263 271 269 264 263 286 287 281 275 268 267 267 267 269 269 265 262 260 259 259 nan nan nan nan nan nan nan nan nan nan nan nan nan nan nan nan nan nan nan nan nan nan nan
302 301 310 315 319 327 336 325 322 318 314 314 312 309 307 307 292 282 283 289 282 257 252 251 250 241 239 230 229 243 261 267 264 267 265 250 241 259 272 272 262 266 266 265 268 268 266 268 270 284 280 274 271 264 nan 268 267 266 268 266 265 265 264 nan nan nan nan nan nan nan nan nan nan nan nan nan nan nan nan nan nan nan nan nan nan
315 322 314 322 328 321 319 313 315 307 314 321 318 321 318 306 306 303 298 297 292 269 260 263 253 251 241 230 224 233 242 248 263 266 257 266 262 227 269 267 261 269 274 269 269 270 270 270 269 266 264 266 265 268 265 nan nan 271 270 272 271 270 270 270 268 nan nan nan nan nan nan nan nan nan nan nan nan nan nan nan nan nan nan nan nan
297 317 311 312 311 312 309 306 306 303 306 308 310 319 315 307 304 309 307 287 269 261 250 256 256 264 252 230 219 229 242 244 254 253 250 256 255 235 253 268 271 273 268 272 275 272 273 277 275 272 269 264 257 266 274 274 272 274 281 279 276 276 275 272 270 271 268 nan nan nan nan nan nan nan nan nan nan nan nan nan nan nan nan nan nan
308 299 292 296 303 299 289 293 292 292 294 306 319 315 307 306 301 293 283 277 263 244 244 257 271 269 260 244 226 233 260 257 252 257 262 269 264 257 270 271 268 272 272 271 273 273 272 278 282 284 288 288 278 265 273 269 273 274 275 284 280 282 279 276 274 275 274 270 268 nan nan nan nan nan nan nan nan nan nan nan nan nan nan nan nan
300 301 297 297 294 293 288 282 285 287 295 304 300 318 303 300 298 288 280 279 282 257 273 277 272 262 256 255 249 238 244 253 251 257 260 255 259 261 264 259 264 270 274 266 263 270 275 277 285 296 303 305 293 267 254 253 253 263 266 269 281 281 280 278 277 278 276 276 276 nan nan nan nan nan nan nan nan nan nan nan nan nan nan nan nan
306 309 307 305 302 298 294 286 290 297 301 304 299 299 304 302 304 303 293 286 280 290 293 289 275 267 263 265 268 263 253 259 269 258 248 254 258 261 264 262 260 264 266 265 264 269 276 276 270 273 273 272 262 252 245 248 258 267 265 269 272 277 280 273 269 274 274 277 280 282 nan nan nan nan nan nan nan nan nan nan nan nan nan nan nan
318 316 310 312 309 304 300 297 302 309 309 312 315 303 310 302 296 292 300 295 290 301 306 289 276 254 255 263 265 268 265 257 245 252 258 249 247 250 257 262 258 263 270 275 275 278 281 279 269 259 261 272 278 284 272 249 246 259 265 264 270 277 273 262 258 261 273 276 280 281 279 271 nan nan nan nan nan nan nan nan nan nan nan nan nan
317 313 313 313 311 306 308 314 312 313 307 312 312 318 324 304 299 292 301 301 297 312 333 264 248 279 280 262 258 248 254 239 205 213 236 242 241 244 245 252 261 265 267 273 281 279 276 278 280 282 280 272 264 266 259 257 254 253 254 253 263 258 263 266 271 277 274 269 272 271 274 273 269 nan nan nan nan nan nan nan nan nan nan nan nan
315 312 314 312 307 304 311 311 317 315 320 340 325 311 312 311 318 312 299 283 291 296 308 265 273 270 270 268 276 274 264 250 214 207 236 249 241 248 257 260 262 270 271 271 269 272 272 279 283 284 282 276 275 282 nan 275 269 257 252 249 244 253 269 280 290 289 277 265 257 264 264 267 269 268 267 nan nan nan nan nan nan nan nan nan nan
306 311 312 309 305 306 305 308 314 320 314 333 332 335 317 322 322 317 301 290 292 288 283 278 268 269 250 264 276 280 284 273 nan 234 227 243 248 251 253 271 278 276 275 277 277 273 271 269 271 278 286 286 283 286 285 283 270 267 259 256 251 256 256 272 275 273 273 277 271 270 271 266 263 268 267 267 267 nan nan nan nan nan nan nan nan
nan nan 296 303 309 310 305 305 299 299 302 294 345 330 336 333 337 322 316 304 296 282 272 265 265 262 nan nan nan 259 276 285 276 nan 235 250 264 261 262 262 268 272 276 279 278 275 nan 273 274 278 282 281 275 272 271 272 274 277 275 nan nan nan 265 282 286 276 280 288 295 296 283 274 264 261 264 267 269 270 272 nan nan nan nan nan nan
nan 282 285 289 295 303 307 304 300 301 294 299 305 314 323 331 339 325 310 297 296 277 271 263 263 253 257 267 274 nan 286 294 nan nan 260 261 267 267 261 261 263 268 273 277 nan nan nan nan 272 272 274 276 275 273 274 271 274 279 282 nan nan nan 260 258 264 267 271 279 291 296 300 293 272 257 252 262 272 277 279 281 nan nan nan nan nan
nan nan nan 279 278 285 296 288 287 292 288 279 286 293 310 311 309 308 311 298 278 273 279 270 255 246 249 252 257 259 268 275 nan nan nan nan nan nan 263 268 275 278 278 277 280 277 271 269 272 271 nan nan nan 274 275 nan 271 nan nan nan nan nan nan nan 248 243 255 266 274 277 280 281 280 267 256 256 266 278 288 293 295 291 nan nan nan
nan 296 292 281 nan nan 278 288 289 288 273 nan 279 283 285 287 294 292 291 287 277 278 273 275 269 256 250 250 252 256 258 261 nan nan nan nan nan nan 279 269 275 276 281 284 282 279 277 278 280 nan nan nan nan nan nan nan nan nan nan nan nan nan nan 260 252 244 245 257 260 265 269 270 270 270 264 259 257 263 272 286 301 307 306 300 nan
nan nan nan nan nan nan nan nan nan nan nan nan 270 273 277 280 280 277 281 279 276 272 266 267 266 264 251 241 246 251 255 260 264 274 279 nan nan 280 280 272 272 274 282 286 287 281 280 282 nan nan nan nan nan nan nan nan nan nan nan nan nan nan nan 257 253 248 246 253 260 262 264 264 260 254 248 250 249 259 266 259 254 243 240 239 246
nan nan nan nan nan nan nan nan nan nan nan 282 269 262 263 271 277 274 270 265 262 265 269 271 265 263 256 257 249 250 250 250 253 265 nan nan 285 287 288 292 288 287 281 283 285 281 nan nan nan nan nan nan nan nan nan nan nan nan nan nan nan nan nan nan nan nan nan nan nan 259 258 259 259 257 251 248 248 249 248 249 249 249 253 261 nan
nan nan nan nan nan nan nan nan nan nan nan nan nan 271 262 265 265 261 257 258 255 253 254 257 262 260 255 259 264 268 nan 260 271 267 nan nan nan 276 279 290 296 295 293 292 287 282 nan nan nan nan nan nan nan nan nan nan nan nan nan nan nan nan nan nan nan nan nan nan nan nan nan nan nan nan nan nan nan nan nan nan nan nan nan nan nan
nan nan nan nan nan nan nan nan nan nan nan nan nan nan nan nan nan 257 254 251 247 246 245 247 247 247 247 251 253 254 253 261 262 268 nan nan 286 291 291 286 275 276 290 281 279 278 nan nan nan nan nan nan nan nan nan nan nan nan nan nan nan nan nan nan nan nan nan nan nan nan nan nan nan nan nan nan nan nan nan nan nan nan nan nan nan
nan nan nan nan nan nan nan nan nan nan nan nan nan nan nan nan nan nan nan nan nan nan nan nan nan 252 247 239 246 247 259 257 261 269 273 277 nan nan nan 296 295 nan 297 293 281 nan nan nan nan nan nan nan nan nan nan nan nan nan nan nan nan nan nan nan nan nan nan nan nan nan nan nan nan nan nan nan nan nan nan nan nan nan nan nan nan
nan nan nan nan nan nan nan nan nan nan nan nan nan nan nan nan nan nan nan nan nan nan nan nan nan nan nan nan nan nan 256 264 273 278 284 289 295 nan nan nan nan nan 307 nan nan nan nan nan nan nan nan nan nan nan nan nan nan nan nan nan nan nan nan nan nan nan nan nan nan nan nan nan nan nan nan nan nan nan nan nan nan nan nan nan nan
nan nan nan nan nan nan nan nan nan nan nan nan nan nan nan nan nan nan nan nan nan nan nan nan nan nan nan nan nan nan nan nan nan 285 292 295 nan nan nan nan nan nan nan nan nan nan nan nan nan nan nan nan nan nan nan nan nan nan nan nan nan nan nan nan nan nan nan nan nan nan nan nan nan nan nan nan nan nan nan nan nan nan nan nan nan
nan nan nan nan nan nan nan nan nan nan nan nan nan nan nan nan nan nan nan nan nan nan nan nan nan nan nan nan nan nan nan nan nan nan nan nan nan nan nan nan nan nan nan nan nan nan nan nan nan nan nan nan nan nan nan nan nan nan nan nan nan nan nan nan nan nan nan nan nan nan nan nan nan nan nan nan nan nan nan nan nan nan nan nan nan
nan nan nan nan nan nan nan nan nan nan nan nan nan nan nan nan nan nan nan nan nan nan nan nan nan nan nan nan nan nan nan nan nan nan nan nan nan nan nan nan nan nan nan nan nan nan nan nan nan nan nan nan nan nan nan nan nan nan nan nan nan nan nan nan nan nan nan nan nan nan nan nan nan nan nan nan nan nan nan nan nan nan nan nan nan
nan nan nan nan nan nan nan nan nan nan nan nan nan nan nan nan nan nan nan nan nan nan nan nan nan nan nan nan nan nan nan nan nan nan nan nan nan nan nan nan nan nan nan nan nan nan nan nan nan nan nan nan nan nan nan nan nan nan nan nan nan nan nan nan nan nan nan nan nan nan nan nan nan nan nan nan nan nan nan nan nan nan nan nan nan
nan nan nan nan nan nan nan nan nan nan nan nan nan nan nan nan nan nan nan nan nan nan nan nan nan nan nan nan nan nan nan nan nan nan nan nan nan nan nan nan nan nan nan nan nan nan nan nan nan nan nan nan nan nan nan nan nan nan nan nan nan nan nan nan nan nan nan nan nan nan nan nan nan nan nan nan nan nan nan nan nan nan nan nan nan
nan nan nan nan nan nan nan nan nan nan nan nan nan nan nan nan nan nan nan nan nan nan nan nan nan nan nan nan nan nan nan nan nan nan nan nan nan nan nan nan nan nan nan nan nan nan nan nan nan nan nan nan nan nan nan nan nan nan nan nan nan nan nan nan nan nan nan nan nan nan nan nan nan nan nan nan nan nan nan nan nan nan nan nan nan
nan nan nan nan nan nan nan nan nan nan nan nan nan nan nan nan nan nan nan nan nan nan nan nan nan nan nan nan nan nan nan nan nan nan nan nan nan nan nan nan nan nan nan nan nan nan nan nan nan nan nan nan nan nan nan nan nan nan nan nan nan nan nan nan nan nan nan nan nan nan nan nan nan nan nan nan nan nan nan nan nan nan nan nan nan
nan nan nan nan nan nan nan nan nan nan nan nan nan nan nan nan nan nan nan nan nan nan nan nan nan nan nan nan nan nan nan nan nan nan nan nan nan nan nan nan nan nan nan nan nan nan nan nan nan nan nan nan nan nan nan nan nan nan nan nan nan nan nan nan nan nan nan nan nan nan nan nan nan nan nan nan nan nan nan nan nan nan nan nan nan
nan nan nan nan nan nan nan nan nan nan nan nan nan nan nan nan nan nan nan nan nan nan nan nan nan nan nan nan nan nan nan nan nan nan nan nan nan nan nan nan nan nan nan nan nan nan nan nan nan nan nan nan nan nan nan nan nan nan nan nan nan nan nan nan nan nan nan nan nan nan nan nan nan nan nan nan nan nan nan nan nan nan nan nan nan
nan nan nan nan nan nan nan nan nan nan nan nan nan nan nan nan nan nan nan nan nan nan nan nan nan nan nan nan nan nan nan nan nan nan nan nan nan nan nan nan nan nan nan nan nan nan nan nan nan nan nan nan nan nan nan nan nan nan nan nan nan nan nan nan nan nan nan nan nan nan nan nan nan nan nan nan nan nan nan nan nan nan nan nan nan
nan nan nan nan nan nan nan nan nan nan nan nan nan nan nan nan nan nan nan nan nan nan nan nan nan nan nan nan nan nan nan nan nan nan nan nan nan nan nan nan nan nan nan nan nan nan nan nan nan nan nan nan nan nan nan nan nan nan nan nan nan nan nan nan nan nan nan nan nan nan nan nan nan nan nan nan nan nan nan nan nan nan nan nan nan
nan nan nan nan nan nan nan nan nan nan nan nan nan nan nan nan nan nan nan nan nan nan nan nan nan nan nan nan nan nan nan nan nan nan nan nan nan nan nan nan nan nan nan nan nan nan nan nan nan nan nan nan nan nan nan nan nan nan nan nan nan nan nan nan nan nan nan nan nan nan nan nan nan nan nan nan nan nan nan nan nan nan nan nan nan
nan nan nan nan nan nan nan nan nan nan nan nan nan nan nan nan nan nan nan nan nan nan nan nan nan nan nan nan nan nan nan nan nan nan nan nan nan nan nan nan nan nan nan nan nan nan nan nan nan nan nan nan nan nan nan nan nan nan nan nan nan nan nan nan nan nan nan nan nan nan nan nan nan nan nan nan nan nan nan nan nan nan nan nan nan
nan nan nan nan nan nan nan nan nan nan nan nan nan nan nan nan 288 287 285 285 nan nan nan nan nan nan nan nan nan nan nan nan nan nan nan nan nan nan nan nan nan nan nan nan nan nan nan nan nan nan nan nan nan nan nan nan nan nan nan nan nan nan nan nan nan nan nan nan nan nan nan nan nan nan nan nan nan nan nan nan nan nan nan nan nan
249 248 nan nan nan nan nan nan nan nan nan nan nan nan nan 284 289 291 291 288 286 288 291 294 nan 295 nan nan nan nan nan nan nan nan nan nan nan nan nan nan nan nan nan nan nan nan nan nan nan nan nan nan nan nan nan nan nan nan nan nan nan nan nan nan nan nan nan nan nan nan nan nan nan nan nan nan nan nan nan nan nan nan nan nan nan
253 254 253 252 nan nan nan nan nan nan nan nan nan nan nan 287 287 291 288 286 287 292 294 nan nan nan 293 292 nan 290 nan nan nan nan nan nan nan nan nan nan nan nan nan nan nan nan nan nan nan nan nan nan nan nan nan nan nan nan nan nan nan nan nan nan nan nan nan nan nan nan nan nan nan nan nan nan nan nan nan nan nan nan nan nan nan
254 255 nan 254 256 nan nan nan nan nan nan nan nan nan nan nan 286 287 286 286 288 291 293 nan nan nan nan nan 290 nan nan nan nan nan nan nan nan nan nan nan nan nan nan nan nan nan nan nan nan nan nan nan nan nan nan nan nan nan nan nan nan nan nan nan nan nan nan nan nan nan nan nan nan nan nan nan nan nan nan nan nan nan nan nan nan
252 251 252 258 259 260 263 nan nan nan nan nan nan nan nan nan 288 288 287 288 288 288 290 294 nan nan nan nan nan nan nan nan nan nan nan nan nan nan nan nan nan nan nan nan nan nan nan nan nan nan nan nan nan nan nan nan nan nan nan nan nan nan nan nan nan nan nan nan nan nan nan nan nan nan nan nan nan nan nan nan nan nan nan nan nan
252 254 257 260 261 263 267 269 271 nan nan nan nan nan nan nan 291 289 289 289 287 286 288 291 291 nan nan nan nan nan nan nan nan nan 292 291 nan nan nan nan nan nan nan nan nan nan nan nan nan nan nan nan nan nan nan nan nan nan nan nan nan nan nan nan nan nan nan nan nan nan nan nan nan nan nan nan nan nan nan nan nan nan nan nan nan
255 255 257 261 262 264 265 268 271 272 274 278 282 281 284 287 289 288 nan nan nan 286 291 292 289 nan nan nan nan nan nan nan nan 289 291 293 nan nan nan nan nan nan nan nan nan nan nan nan nan nan nan nan nan nan nan nan nan nan nan nan nan nan nan nan nan nan nan nan nan nan nan nan nan nan nan nan nan nan nan nan nan nan nan nan nan
259 257 257 259 261 263 263 264 268 270 273 277 280 285 286 287 nan nan nan nan nan nan nan nan nan nan nan nan nan nan nan nan nan 289 290 nan nan nan 287 283 273 263 nan nan nan nan nan nan nan nan nan nan nan nan nan nan nan nan nan nan nan nan nan nan nan nan nan nan nan nan nan nan nan nan nan nan nan nan nan nan nan nan nan nan nan
261 259 258 260 259 261 262 260 261 265 268 270 276 281 285 286 nan nan nan 284 nan nan nan nan nan nan nan nan nan nan nan nan nan 292 291 nan nan nan nan 282 269 264 nan nan nan nan nan nan nan nan nan nan nan nan nan nan nan nan nan nan nan nan nan nan nan nan nan nan nan nan nan nan nan nan nan nan nan nan nan nan nan nan nan nan nan
262 260 261 263 265 267 267 268 268 268 270 275 280 283 285 287 284 282 282 283 284 285 nan nan nan nan nan nan nan nan nan nan 283 290 292 nan nan nan nan nan nan nan nan nan nan nan nan nan nan nan nan nan nan nan nan nan nan nan nan nan nan nan nan nan nan nan nan nan nan nan nan nan nan nan nan nan nan nan nan nan nan nan nan nan nan
266 269 271 269 268 269 269 269 271 271 275 282 290 291 292 292 289 286 286 286 284 285 282 nan nan nan nan nan nan nan nan 280 286 292 292 288 nan nan nan nan nan nan nan nan nan nan nan nan nan nan nan nan nan nan nan nan nan nan nan nan nan nan nan nan nan nan nan nan nan nan nan nan nan nan nan nan nan nan nan nan nan nan nan nan nan
nan 271 274 275 271 269 270 273 277 276 276 282 291 294 293 293 290 286 287 287 286 283 285 nan nan nan nan nan nan nan nan 280 286 287 nan nan nan nan nan nan nan nan nan nan nan nan nan nan nan nan nan nan nan nan nan nan nan nan nan nan nan nan nan nan nan nan nan nan nan nan nan nan nan nan nan nan nan nan nan nan nan nan nan nan nan